Flag for Germany Weather past 2 weeks in Dannenberg, Lower Saxony, Germany

Now
57 °F

Passing clouds.


Feels Like: 56 °F
Forecast: 39 / 51 °F
Wind: 7 mph from South

Location: Marnitz


UV Index: 0 (Low)

Visibility: 31 mi


Pressure: 29.95 "Hg

Humidity: 35%

Dew point: 29 °F

Location of DannenbergLocation

Historic Weather in Dannenberg

°F

Dannenberg temperature yesterday

Maximum temperature yesterday: 55 °F (at 4:00 PM)
Minimum temperature yesterday: 31 °F (at 4:00 AM)
Average temperature yesterday: 45 °F

Past Weeks' High & Low Weather Summary

 TemperatureHumidityPressure
High66 °F (Apr 7, 5:00 PM)100% (Apr 6, 8:00 AM)30.45 "Hg (Apr 6, 8:00 AM)
Low31 °F (Apr 16, 4:00 AM)34% (Apr 17, 12:00 PM)29.65 "Hg (Apr 3, 6:00 AM)
Average49 °F77%29.98 "Hg
* Reported Apr 2 6:00 PM — Apr 17 6:00 PM, Dannenberg, Weather by CustomWeather, © 2014

Note: Actual official high and low records may vary slightly from our data, if they occured in-between our weather recording intervals... More about our weather records

Advertising

Historic Weather Conditions — Data for Previous 24 hours

 ConditionsComfort  
Time TempWeatherWind HumidityBarometerVisibility
6:00 PM
Apr 17
57 °FPassing clouds.7 mph35%29.95 "Hg31 mi
5:00 PM57 °FOvercast.7 mph34%30.00 "Hg22 mi
4:00 PM57 °FSunny.7 mph37%30.03 "Hg34 mi
3:00 PM56 °FPartly sunny.7 mph35%30.07 "Hg31 mi
2:00 PM55 °FOvercast.6 mph35%30.11 "Hg31 mi
1:00 PM55 °FOvercast.7 mph36%30.17 "Hg25 mi
12:00 PM53 °FOvercast.8 mph34%30.20 "Hg34 mi
11:00 AM52 °FOvercast.6 mph41%30.24 "Hg28 mi
10:00 AM51 °FOvercast.5 mph44%30.26 "Hg28 mi
9:00 AM48 °FSunny.3 mph47%30.27 "Hg25 mi
8:00 AM43 °FPartly sunny.5 mph57%30.29 "Hg40 mi
7:00 AM41 °FPassing clouds.2 mph62%30.30 "Hg37 mi
6:00 AM40 °FPassing clouds.3 mph62%30.31 "Hg43 mi
5:00 AM42 °FPassing clouds.3 mph57%30.32 "Hg40 mi
4:00 AM42 °FClear.3 mph57%30.33 "Hg43 mi
3:00 AM45 °FOvercast.3 mph53%30.34 "Hg43 mi
2:00 AM45 °FOvercast.3 mph53%30.36 "Hg43 mi
1:00 AM44 °FClear.3 mph57%30.37 "Hg43 mi
12:00 AM42 °FClear.2 mph66%30.38 "Hg43 mi
11:00 PM
Apr 16
41 °FPassing clouds.2 mph71%30.38 "Hg43 mi
Weather by CustomWeather, © 2014

See weather overview